TimePDT,TemperatureF,Dew PointF,Humidity,Sea Level PressureIn,VisibilityMPH,Wind Direction,Wind SpeedMPH,Gust SpeedMPH,PrecipitationIn,Events,Conditions,WindDirDegrees,DateUTC
12:55 AM,57.9,48.9,72,29.83,10.0,ESE,4.6,-,N/A,,Clear,120,2013-04-08 07:55:00
1:55 AM,55.9,48.9,77,29.81,9.0,SSW,5.8,-,N/A,,Clear,200,2013-04-08 08:55:00
2:55 AM,55.9,48.9,77,29.77,10.0,ESE,3.5,-,N/A,,Clear,120,2013-04-08 09:55:00
3:55 AM,55.9,48.0,75,29.76,10.0,Calm,Calm,-,N/A,,Clear,0,2013-04-08 10:55:00
4:55 AM,52.0,46.0,80,29.75,10.0,Calm,Calm,-,N/A,,Clear,0,2013-04-08 11:55:00
5:55 AM,54.0,48.0,80,29.75,9.0,Calm,Calm,-,N/A,,Partly Cloudy,0,2013-04-08 12:55:00
6:55 AM,53.1,46.0,77,29.75,9.0,NW,6.9,-,N/A,,Clear,310,2013-04-08 13:55:00
7:55 AM,57.9,39.9,51,29.73,10.0,West,23.0,31.1,N/A,,Clear,280,2013-04-08 14:55:00
8:55 AM,60.1,39.0,46,29.74,10.0,West,29.9,35.7,N/A,,Clear,280,2013-04-08 15:55:00
9:55 AM,61.0,37.9,42,29.74,10.0,West,32.2,39.1,N/A,,Clear,260,2013-04-08 16:55:00
10:55 AM,66.9,36.0,32,29.72,10.0,West,25.3,34.5,N/A,,Clear,280,2013-04-08 17:55:00
11:55 AM,69.1,37.0,31,29.71,10.0,West,26.5,34.5,N/A,,Clear,270,2013-04-08 18:55:00
12:55 PM,69.1,41.0,36,29.70,10.0,West,29.9,41.4,N/A,,Clear,270,2013-04-08 19:55:00
1:55 PM,66.9,42.1,40,29.70,9.0,WSW,28.8,39.1,N/A,,Clear,240,2013-04-08 20:55:00
2:55 PM,73.9,28.9,19,29.69,10.0,NW,25.3,34.5,N/A,,Clear,310,2013-04-08 21:55:00
3:55 PM,73.0,27.0,18,29.69,10.0,NW,27.6,39.1,N/A,,Clear,320,2013-04-08 22:55:00
4:55 PM,72.0,27.0,19,29.70,10.0,NW,25.3,40.3,N/A,,Clear,320,2013-04-08 23:55:00
5:55 PM,72.0,28.0,20,29.72,10.0,NW,21.9,27.6,N/A,,Clear,320,2013-04-09 00:55:00
6:55 PM,69.1,27.0,21,29.73,10.0,NW,19.6,25.3,N/A,,Clear,310,2013-04-09 01:55:00
7:55 PM,62.1,41.0,46,29.76,10.0,West,21.9,26.5,N/A,,Clear,260,2013-04-09 02:55:00
8:55 PM,61.0,39.9,46,29.80,10.0,West,18.4,-,N/A,,Clear,280,2013-04-09 03:55:00
9:55 PM,60.1,42.1,51,29.83,10.0,Calm,Calm,-,N/A,,Clear,0,2013-04-09 04:55:00
10:55 PM,59.0,39.9,49,29.85,10.0,Calm,Calm,-,N/A,,Clear,0,2013-04-09 05:55:00
11:55 PM,55.9,41.0,57,29.86,10.0,Calm,Calm,-,N/A,,Clear,0,2013-04-09 06:55:00